Probability
5 7 8 8 9 9 9 9 8 6 4 1 1 2 1 0 0 0 0 0 0 0 0 0 0 0 0 0 0 0 0 0 0 0 0 0 0 1 1 2 3 4 3
6 7 9 9 9 9 9 9 9 7 5 3 2 2 1 0 0 0 0 0 0 0 0 0 0 0 0 0 0 0 0 0 0 0 0 0 0 1 1 2 4 4 3
5 6 8 9 10 9 9 9 9 8 6 5 3 3 2 1 0 0 0 0 0 0 0 0 0 0 0 0 0 0 0 0 0 1 1 0 0 0 0 1 3 3 4
3 4 5 7 9 9 9 10 10 9 9 7 6 5 3 2 1 0 0 0 0 0 0 0 0 1 0 0 0 0 1 2 2 3 4 3 2 1 0 0 2 3 4
2 3 4 6 8 9 11 11 11 13 13 11 10 8 5 2 1 1 1 1 0 0 0 0 2 3 2 2 2 3 4 5 5 5 6 7 5 4 3 2 2 3 4
4 5 7 9 10 11 12 12 13 15 15 12 11 11 9 6 4 4 5 3 1 0 1 2 4 5 5 6 7 7 8 9 9 8 8 9 8 8 7 5 3 3 3
10 12 15 16 15 14 14 14 16 18 16 11 10 13 14 12 10 9 8 6 3 2 3 5 6 6 6 7 9 10 10 12 13 12 11 11 11 12 10 7 5 5 4
16 20 25 25 21 19 17 17 18 19 17 13 10 13 15 14 13 12 11 9 8 7 7 8 9 9 8 9 10 11 12 14 15 15 15 15 15 16 14 11 9 9 8
19 22 28 29 26 25 22 20 19 18 17 14 11 11 12 12 14 16 16 14 13 13 14 15 15 14 13 13 13 12 13 15 17 18 19 18 18 19 19 16 15 14 14
15 19 25 27 27 27 26 23 19 18 17 15 13 11 10 10 14 19 20 19 20 21 22 23 22 19 17 17 17 17 16 17 20 23 25 24 23 22 21 19 19 19 18
10 15 21 25 27 27 27 24 21 20 20 19 18 17 15 13 15 20 22 24 26 28 28 28 27 23 20 22 23 21 19 19 20 23 27 29 29 27 24 22 23 23 23
10 14 19 23 26 27 27 26 24 23 23 23 24 25 23 20 19 20 23 26 29 29 28 28 27 26 26 28 28 25 21 19 19 21 25 28 30 31 30 29 28 28 28
14 17 21 23 25 27 29 29 28 26 26 27 29 31 30 26 23 22 22 24 25 25 24 25 26 27 28 30 31 28 24 22 21 22 25 26 29 32 35 36 34 33 32
17 20 23 26 28 31 32 32 31 29 29 31 32 31 29 27 25 23 22 21 22 23 22 22 23 23 22 25 29 29 27 25 25 24 25 25 26 30 33 35 36 36 35
21 22 24 27 30 32 34 34 33 32 33 34 31 28 26 25 24 24 22 21 21 21 21 20 20 17 14 15 21 24 25 26 25 24 23 22 21 22 22 24 28 32 34
25 25 25 26 27 29 32 34 34 33 34 33 29 25 26 26 26 25 24 23 22 20 20 19 17 14 10 9 12 16 21 25 26 26 24 20 17 16 15 13 13 18 22
29 28 27 26 26 27 29 32 32 31 31 31 28 27 28 29 29 28 27 26 24 22 22 21 19 17 13 8 5 9 16 22 27 30 28 23 18 17 18 14 9 9 11
31 32 31 28 27 26 27 29 30 29 29 30 30 29 28 28 29 28 27 27 26 23 23 24 24 21 16 8 3 4 12 20 25 29 29 26 21 19 19 18 17 16 15
33 36 36 33 30 29 27 28 28 28 28 29 30 28 27 26 26 26 26 27 27 24 23 24 25 24 19 10 3 4 12 19 23 27 26 23 20 16 14 17 21 23 23
35 38 39 38 37 35 33 32 31 30 28 28 29 28 27 27 26 26 26 27 27 25 23 23 24 24 21 12 3 3 10 17 22 26 25 19 14 9 9 13 19 23 25
34 35 37 39 41 38 35 36 35 33 29 28 29 30 29 28 27 26 26 25 25 24 23 23 22 22 21 14 4 2 7 14 20 24 23 18 10 4 4 9 14 18 20
29 30 31 33 33 32 33 35 36 34 30 27 27 28 27 26 26 26 25 24 23 22 21 21 20 18 17 13 5 1 3 9 16 19 18 13 7 1 1 3 7 10 11
25 25 25 24 24 24 26 29 31 31 28 26 24 23 23 23 24 24 23 21 19 17 17 16 14 12 12 9 4 1 0 3 8 11 10 6 3 1 0 1 2 5 9
22 21 20 19 19 20 20 22 23 24 23 21 20 19 20 21 21 19 17 15 12 12 12 11 9 7 7 5 3 1 1 1 3 4 4 3 1 1 2 3 4 7 11
19 18 17 18 18 18 17 16 16 17 16 15 15 15 17 18 16 13 10 8 6 6 7 7 6 5 4 3 1 1 2 2 1 2 4 4 2 1 3 6 9 11 12
18 17 17 18 19 17 16 15 14 13 11 10 11 12 14 15 13 10 7 4 2 3 3 3 3 4 3 1 0 0 1 1 1 2 6 6 3 2 4 7 10 11 11
Wind_Speed
11 11 11 11 11 10 10 9 9 8 6 5 4 4 4 3 3 3 3 4 4 4 4 3 2 3 1 2 2 2 2 2 2 3 2 3 3 2 3 3 3 3 3
11 11 11 12 12 11 11 10 9 8 7 5 4 3 2 3 2 2 2 4 4 4 4 4 4 2 2 2 2 2 3 2 1 3 3 2 2 3 2 3 3 2 3
11 12 12 12 12 12 12 10 10 9 8 7 5 3 3 4 4 4 3 4 4 4 4 4 4 3 4 2 2 2 3 2 2 2 3 3 2 2 2 2 2 2 2
11 11 13 13 13 12 11 10 9 9 8 8 7 7 5 4 3 3 2 3 4 4 4 4 4 4 4 2 4 2 3 3 3 1 2 3 4 4 2 2 2 2 3
11 11 12 12 12 12 11 10 9 9 8 8 8 7 6 5 3 3 3 4 4 4 4 4 4 4 4 3 3 2 4 3 4 3 2 2 3 5 5 3 2 2 2
9 10 10 10 11 11 10 10 10 9 8 8 8 8 7 6 5 4 4 4 4 4 4 4 4 5 4 4 4 4 5 4 4 4 3 3 3 3 4 4 4 3 2
8 9 10 10 10 11 11 10 10 9 9 9 8 8 7 7 6 6 5 4 4 3 4 4 4 5 4 5 5 5 5 5 5 5 4 3 4 4 4 5 5 4 3
6 7 8 8 9 10 10 10 9 9 9 8 8 7 7 6 5 5 5 4 4 4 3 4 5 5 5 6 4 4 5 4 5 6 5 4 4 4 4 4 5 5 4
5 6 7 7 8 9 9 9 9 8 8 7 7 6 6 6 5 5 6 5 4 4 4 5 5 5 5 5 5 5 5 4 5 6 5 5 4 5 4 4 4 5 6
5 6 6 7 7 8 9 9 8 7 6 6 5 5 5 5 5 5 5 5 5 5 5 5 5 5 5 5 5 5 5 5 5 4 5 5 5 4 4 5 5 5 6
5 5 5 6 7 7 7 8 7 7 6 6 5 4 4 4 4 4 4 4 4 4 5 5 5 5 5 5 5 5 5 6 6 6 6 7 7 5 5 5 5 5 5
4 5 5 5 6 6 7 7 7 7 7 6 5 5 4 4 4 4 4 4 4 4 4 5 5 5 5 5 5 5 5 6 6 6 7 7 6 6 6 5 6 5 5
4 4 5 5 4 5 5 5 6 6 6 6 6 5 5 5 5 4 4 4 4 4 4 4 5 5 5 5 5 5 6 6 6 6 7 7 7 7 6 6 6 6 6
4 4 4 4 4 4 4 4 4 4 5 5 5 4 4 4 4 4 4 3 3 4 3 4 4 4 4 5 5 5 6 6 6 6 6 7 7 7 7 6 6 6 6
3 3 4 4 3 4 3 4 3 3 3 4 4 3 3 3 3 3 3 3 3 3 3 3 3 4 4 4 4 5 6 5 6 6 6 6 5 5 6 6 5 6 5
3 3 3 3 3 3 3 3 3 3 3 3 3 2 2 3 2 2 2 2 3 3 3 3 4 4 3 1 2 5 6 6 6 6 6 6 6 6 6 7 7 6 7
3 3 3 3 2 2 2 3 3 3 4 4 3 3 2 2 2 2 2 2 3 3 3 4 4 4 3 3 3 4 6 7 6 6 7 7 4 5 6 6 8 8 9
3 3 3 3 2 2 2 2 2 2 2 2 2 2 3 2 2 2 3 3 3 3 4 4 5 5 4 3 4 5 7 7 7 7 7 7 6 5 5 7 6 7 7
3 2 2 3 2 2 2 2 2 2 2 2 1 1 1 2 2 3 3 3 3 4 4 4 5 5 4 3 4 5 6 6 7 7 6 6 7 3 4 7 7 7 6
3 2 2 3 3 2 1 1 1 1 1 1 1 2 2 2 3 3 3 3 3 4 4 4 4 5 4 1 3 5 6 6 6 5 5 4 5 4 4 7 7 7 6
3 3 3 3 2 2 1 1 1 0 1 1 1 1 2 2 3 3 3 3 3 3 4 4 4 4 3 2 2 3 5 5 6 5 5 3 3 4 5 7 7 6 6
4 3 3 2 2 1 1 1 1 1 1 1 1 1 2 3 2 2 3 3 3 4 4 4 4 3 2 2 2 3 5 7 7 6 6 3 2 4 6 6 6 6 6
3 3 3 3 2 1 1 1 1 1 1 1 1 2 2 2 2 3 3 3 3 4 3 4 4 3 2 1 2 4 5 6 6 5 5 5 5 6 7 8 7 7 6
3 3 3 2 2 1 1 1 1 1 1 1 2 2 2 2 2 3 3 3 3 3 4 4 4 4 3 3 3 3 3 5 5 5 5 7 7 7 6 5 6 6 5
3 2 2 2 1 1 0 1 1 1 1 2 2 3 2 2 2 2 2 3 3 3 4 5 5 5 5 4 5 5 5 5 4 5 5 5 4 4 4 4 4 4 4
3 2 2 2 1 1 1 1 2 2 3 3 3 3 3 2 3 2 1 1 1 1 2 4 5 4 4 5 5 5 6 6 6 5 5 5 5 5 5 5 4 4 4
Wind_Direction
187 186 189 191 190 189 190 192 195 187 192 194 203 204 206 212 212 219 220 233 238 224 237 265 229 261 262 291 292 283 258 267 295 281 263 238 221 231 218 233 246 221 230
185 188 191 193 194 192 193 192 194 191 196 197 207 214 221 225 226 232 219 237 239 237 224 235 252 242 246 247 276 278 289 282 272 292 292 260 194 209 213 212 218 235 225
191 189 194 195 195 194 195 195 196 196 201 200 200 203 208 225 219 214 214 231 240 244 254 245 257 258 256 243 255 262 268 284 271 279 295 298 318 305 196 219 212 232 246
198 195 194 195 197 195 193 194 193 197 198 199 206 212 220 227 231 236 222 227 232 242 242 242 245 255 260 248 250 235 262 265 271 235 259 292 319 293 281 222 200 210 231
199 197 197 195 196 192 190 188 190 196 196 201 203 214 228 228 226 227 220 235 226 234 245 242 240 243 253 255 269 265 262 258 271 274 260 256 251 260 280 288 282 232 226
194 193 191 188 190 186 187 185 185 192 195 200 204 211 223 230 234 233 234 229 220 223 231 240 240 242 247 241 244 246 240 255 266 272 267 265 271 275 274 277 273 272 249
187 184 184 183 183 183 185 183 183 189 193 199 204 207 217 222 225 234 232 247 246 234 227 239 237 244 241 242 249 243 251 241 242 249 256 257 265 274 279 283 284 279 265
175 173 177 180 181 181 182 183 184 189 193 198 204 210 217 223 225 226 244 241 254 255 245 242 241 241 241 242 240 248 240 236 240 249 252 257 259 266 268 275 288 283 266
162 163 166 174 176 178 178 182 182 188 193 195 199 209 216 228 238 237 237 243 243 246 235 240 239 240 240 244 244 247 247 243 243 242 233 246 253 251 259 260 267 280 284
159 160 163 165 172 175 175 181 182 185 191 195 200 197 210 221 233 243 247 254 252 252 251 245 240 240 240 239 244 249 243 243 245 249 253 254 258 256 252 256 257 261 275
147 154 159 162 165 170 171 175 177 179 186 196 198 203 202 208 219 230 240 244 250 245 243 246 247 246 246 245 244 251 251 249 252 253 246 246 260 261 258 250 252 253 256
135 144 146 153 162 164 167 171 178 183 187 187 192 202 203 206 214 218 228 236 243 247 245 244 246 248 247 247 247 254 258 255 255 256 260 259 254 250 258 259 252 253 256
131 139 140 147 159 162 164 169 182 187 187 186 193 198 202 208 218 221 224 234 241 249 254 252 248 249 253 254 253 254 258 260 262 264 264 264 263 258 255 256 259 256 250
129 128 132 141 147 151 160 172 179 183 184 182 186 196 208 213 219 225 229 236 242 244 249 251 250 252 256 262 263 260 259 260 263 266 268 270 267 266 265 257 255 259 262
134 135 138 136 144 150 160 169 170 169 174 178 183 191 200 203 213 224 228 231 238 241 241 251 255 259 256 260 268 265 260 259 263 264 265 266 275 290 282 281 274 265 259
143 141 140 142 151 157 163 162 158 151 153 164 174 176 191 200 206 216 227 233 236 243 240 243 249 255 263 285 282 275 276 270 264 265 267 261 246 250 247 262 274 277 266
144 145 145 143 141 149 154 160 157 160 171 181 190 189 201 210 212 219 217 229 236 241 249 253 254 255 255 247 245 253 268 267 266 268 271 273 271 251 259 245 238 243 245
133 123 133 131 135 137 133 141 152 165 181 192 199 205 218 225 227 231 234 237 239 241 246 251 257 265 262 232 239 249 251 262 265 263 265 269 275 278 282 273 263 255 243
123 112 107 107 106 114 122 138 154 166 187 198 212 225 225 227 234 244 252 255 253 251 250 253 259 266 270 234 232 248 261 261 265 266 267 271 269 279 287 271 269 266 259
121 114 109 103 106 107 120 147 168 183 220 234 240 251 240 237 247 256 263 264 259 260 265 269 267 269 275 234 228 249 263 269 268 261 256 246 266 281 263 267 270 268 270
122 118 110 98 94 100 108 98 63 1 339 308 285 282 269 252 254 259 264 270 269 276 278 279 276 271 272 222 213 252 270 279 279 277 272 266 209 245 252 263 269 277 286
133 126 113 100 91 98 121 109 61 20 5 331 297 289 280 275 274 272 274 277 278 268 266 268 269 264 250 253 234 234 253 281 282 281 282 295 267 253 249 253 269 274 269
144 142 135 123 111 100 98 90 49 21 1 337 311 300 292 281 283 272 270 263 262 273 283 286 286 288 290 247 219 235 248 260 270 283 297 298 279 259 244 237 241 242 247
159 159 156 147 131 122 94 50 24 17 341 297 291 285 285 283 280 278 283 288 297 298 298 299 299 301 296 303 306 288 261 251 257 271 267 251 247 249 257 243 229 237 246
169 172 173 172 162 154 105 341 329 312 293 285 285 287 284 287 279 281 316 307 335 335 312 310 307 307 305 335 337 311 306 302 301 296 279 275 264 255 252 246 243 245 240
176 184 189 187 192 209 222 294 293 287 276 265 267 278 285 285 278 267 254 110 231 228 267 283 291 304 307 306 310 305 298 294 290 284 278 279 276 273 271 264 256 248 249